HP1CDW-11 Weather Reports


time (UTC)temp
C
wind
direction
speed
KPH
gust
KPH
rain 1hr
cm
rain 24hr
cm
rain mn
cm
humidity
%
barometer
mb
20260503051818 29 0.0 0.0 0.00 0.00 0.00 61 1011.3
20260503050817 29 0.0 0.0 0.00 0.00 0.00 60 1011.4
20260503045817 29 0.0 0.0 0.00 0.00 0.00 60 1011.5
20260503044817 29 0.0 0.0 0.00 0.00 0.00 60 1011.7
20260503043816 29 0.0 0.0 0.00 0.00 0.00 60 1011.8
20260503042816 29 0.0 0.0 0.00 0.00 0.00 60 1011.7
20260503041816 29 0.0 0.0 0.00 0.00 0.00 60 1011.8
20260503040815 29 0.0 0.0 0.00 0.00 0.00 60 1011.8
20260503035815 29 0.0 0.0 0.00 0.00 0.00 60 1011.9
20260503034815 29 0.0 0.0 0.00 0.00 0.00 60 1011.9
20260503033814 29 0.0 0.0 0.00 0.00 0.00 60 1012.0
20260503032814 29 0.0 0.0 0.00 0.00 0.00 60 1012.1
20260503031814 29 0.0 0.0 0.00 0.00 0.00 60 1011.9
20260503030816 29 0.0 0.0 0.00 0.00 0.00 60 1011.9
20260503025813 29 0.0 0.0 0.00 0.00 0.00 59 1011.8
20260503024813 29 0.0 0.0 0.00 0.00 0.00 59 1011.7
20260503023813 29 0.0 0.0 0.00 0.00 0.00 59 1011.7
20260503022812 29 0.0 0.0 0.00 0.00 0.00 59 1011.6
20260503021812 29 0.0 0.0 0.00 0.00 0.00 59 1011.5
20260503020811 29 0.0 0.0 0.00 0.00 0.00 59 1011.4
20260503015811 29 0.0 0.0 0.00 0.00 0.00 59 1011.4
20260503014811 29 0.0 0.0 0.00 0.00 0.00 59 1011.4
20260503013810 29 0.0 0.0 0.00 0.00 0.00 59 1011.3
20260503012810 29 0.0 0.0 0.00 0.00 0.00 59 1011.4
20260503011810 29 0.0 0.0 0.00 0.00 0.00 59 1011.4
20260503010810 29 0.0 0.0 0.00 0.00 0.00 59 1011.2
20260503005809 29 0.0 0.0 0.00 0.00 0.00 59 1011.1
20260503004809 29 0.0 0.0 0.00 0.00 0.00 59 1010.9
20260503003809 29 0.0 0.0 0.00 0.00 0.00 58 1010.9
20260503002808 29 0.0 0.0 0.00 0.00 0.00 58 1010.8
20260503001808 29 0.0 0.0 0.00 0.00 0.00 59 1010.9
20260503000808 29 0.0 0.0 0.00 0.00 0.00 58 1010.9
20260502235807 29 0.0 0.0 0.00 0.00 0.00 58 1011.1
20260502234807 29 0.0 0.0 0.00 0.00 0.00 58 1011.2
20260502233807 29 0.0 0.0 0.00 0.00 0.00 58 1011.1
20260502232807 29 0.0 0.0 0.00 0.00 0.00 58 1011.1
20260502231806 29 0.0 0.0 0.00 0.00 0.00 58 1011.2
20260502230806 29 0.0 0.0 0.00 0.00 0.00 58 1011.2
20260502225806 29 0.0 0.0 0.00 0.00 0.00 58 1011.2
20260502224805 29 0.0 0.0 0.00 0.00 0.00 58 1011.2
20260502223805 29 0.0 0.0 0.00 0.00 0.00 58 1011.0
20260502222804 29 0.0 0.0 0.00 0.00 0.00 58 1010.9
20260502221804 28 0.0 0.0 0.00 0.00 0.00 59 1010.9
20260502220804 28 0.0 0.0 0.00 0.00 0.00 59 1011.0
20260502215804 29 0.0 0.0 0.00 0.00 0.00 61 1011.0
20260502214803 28 0.0 0.0 0.00 0.00 0.00 62 1010.9
20260502213803 28 0.0 0.0 0.00 0.00 0.00 62 1011.3
20260502212802 28 0.0 0.0 0.00 0.00 0.00 63 1011.1
20260502211802 27 0.0 0.0 0.00 0.00 0.00 64 1010.9
20260502210802 22 0.0 0.0 0.00 0.00 0.00 73 1011.1
20260502205802 18 0.0 0.0 0.00 0.00 0.00 57 1011.0
20260502204801 19 0.0 0.0 0.00 0.00 0.00 57 1010.6
20260502203801 18 0.0 0.0 0.00 0.00 0.00 54 1010.8
20260502202801 18 0.0 0.0 0.00 0.00 0.00 55 1010.6
20260502201800 18 0.0 0.0 0.00 0.00 0.00 57 1010.3
20260502200800 19 0.0 0.0 0.00 0.00 0.00 57 1009.8
20260502195800 19 0.0 0.0 0.00 0.00 0.00 55 1009.6
20260502194800 19 0.0 0.0 0.00 0.00 0.00 56 1009.3
20260502193759 19 0.0 0.0 0.00 0.00 0.00 57 1009.3
20260502192759 19 0.0 0.0 0.00 0.00 0.00 56 1009.3
20260502191758 18 0.0 0.0 0.00 0.00 0.00 55 1009.2
20260502190758 18 0.0 0.0 0.00 0.00 0.00 52 1009.1
20260502185758 18 0.0 0.0 0.00 0.00 0.00 52 1009.2
20260502184757 18 0.0 0.0 0.00 0.00 0.00 51 1009.3
20260502183757 19 0.0 0.0 0.00 0.00 0.00 51 1009.2
20260502182757 19 0.0 0.0 0.00 0.00 0.00 51 1009.6
20260502181756 19 0.0 0.0 0.00 0.00 0.00 52 1009.8
20260502180756 20 0.0 0.0 0.00 0.00 0.00 51 1009.9
20260502163753 31 0.0 0.0 0.00 0.00 0.00 51 1010.8
20260502162753 31 0.0 0.0 0.00 0.00 0.00 50 1011.1
20260502161753 31 0.0 0.0 0.00 0.00 0.00 50 1011.3
20260502160752 31 0.0 0.0 0.00 0.00 0.00 54 1011.4
20260502151751 31 0.0 0.0 0.00 0.00 0.00 55 1011.2
20260502150750 31 0.0 0.0 0.00 0.00 0.00 57 1010.9
20260502130746 30 0.0 0.0 0.00 0.00 0.00 62 1009.9
20260502123746 31 0.0 0.0 0.00 0.00 0.00 62 1009.5
20260502122745 30 0.0 0.0 0.00 0.00 0.00 62 1009.4
20260502121745 31 0.0 0.0 0.00 0.00 0.00 62 1009.3
20260502120744 31 0.0 0.0 0.00 0.00 0.00 62 1009.2
20260502115744 31 0.0 0.0 0.00 0.00 0.00 62 1008.8
20260502114744 31 0.0 0.0 0.00 0.00 0.00 62 1008.5
20260502113744 31 0.0 0.0 0.00 0.00 0.00 62 1008.4
20260502112743 31 0.0 0.0 0.00 0.00 0.00 62 1008.6
20260502111743 31 0.0 0.0 0.00 0.00 0.00 62 1008.5
20260502110742 31 0.0 0.0 0.00 0.00 0.00 62 1008.5
20260502105742 31 0.0 0.0 0.00 0.00 0.00 62 1008.4
20260502104742 31 0.0 0.0 0.00 0.00 0.00 62 1008.2
20260502103741 31 0.0 0.0 0.00 0.00 0.00 62 1008.0
20260502102741 31 0.0 0.0 0.00 0.00 0.00 62 1008.3
20260502101741 31 0.0 0.0 0.00 0.00 0.00 62 1008.2
20260502100741 31 0.0 0.0 0.00 0.00 0.00 62 1008.0
20260502090739 31 0.0 0.0 0.00 0.00 0.00 62 1007.3
20260502070735 31 0.0 0.0 0.00 0.00 0.00 61 1008.3
20260502065734 31 0.0 0.0 0.00 0.00 0.00 61 1008.4
20260502064734 31 0.0 0.0 0.00 0.00 0.00 61 1008.4
20260502063734 31 0.0 0.0 0.00 0.00 0.00 61 1008.6
20260502062734 31 0.0 0.0 0.00 0.00 0.00 61 1008.6
20260502061733 31 0.0 0.0 0.00 0.00 0.00 61 1008.6
20260502060733 31 0.0 0.0 0.00 0.00 0.00 61 1008.8
20260502055733 31 0.0 0.0 0.00 0.00 0.00 61 1008.7
20260502054732 31 0.0 0.0 0.00 0.00 0.00 61 1008.8
20260502053732 31 0.0 0.0 0.00 0.00 0.00 61 1008.9
20260502052732 31 0.0 0.0 0.00 0.00 0.00 61 1009.0